This is the latest recevied weather packets stored in our database for station/object K3RUP-1. If no packets are shown the sender has not sent any weather packets the latest 10 day(s).
| Time | Temp. | Humidity | Pressure | Rain* | Wind** | Luminosity | Snow |
|---|---|---|---|---|---|---|---|
| 1777519063 | 11.11° C | 99% | 1007.4 hPa | 0 mm | - | 0 W/m² | - |
| 1777518759 | 11.11° C | 99% | 1007.2 hPa | 0 mm | - | 0 W/m² | - |
| 1777518456 | 11.11° C | 99% | 1007.4 hPa | 0 mm | - | 0 W/m² | - |
| 1777518151 | 11.11° C | 99% | 1007.3 hPa | 0 mm | - | 0 W/m² | - |
| 1777517848 | 11.11° C | 99% | 1007.6 hPa | 0 mm | - | 0 W/m² | - |
| 1777517543 | 11.11° C | 99% | 1007.9 hPa | 0 mm | - | 0 W/m² | - |
| 1777517242 | 11.11° C | 99% | 1007.7 hPa | 0 mm | - | 0 W/m² | - |
| 1777516941 | 11.11° C | 99% | 1007.6 hPa | 0 mm | - | 0 W/m² | - |
| 1777516637 | 11.11° C | 99% | 1007.9 hPa | 0 mm | - | 0 W/m² | - |
| 1777516333 | 11.11° C | 99% | 1008 hPa | 1.27 mm | - | 0 W/m² | - |
| 1777516028 | 11.11° C | 99% | 1008.2 hPa | 1.27 mm | - | 0 W/m² | - |
| 1777515726 | 11.11° C | 99% | 1007.8 hPa | 0 mm | - | 0 W/m² | - |
| 1777515423 | 11.11° C | 99% | 1007.4 hPa | 0 mm | - | 0 W/m² | - |
| 1777515119 | 11.11° C | 99% | 1007.5 hPa | 0 mm | - | 0 W/m² | - |
| 1777514816 | 11.11° C | 99% | 1007.3 hPa | 0 mm | - | 0 W/m² | - |
| 1777514513 | 11.11° C | 99% | 1007.5 hPa | 0 mm | - | 0 W/m² | - |
| 1777514210 | 11.11° C | 99% | 1007.3 hPa | 0 mm | - | 0 W/m² | - |
| 1777513906 | 11.67° C | 99% | 1007 hPa | 0 mm | - | 0 W/m² | - |
| 1777513603 | 11.67° C | 99% | 1007.3 hPa | 3.05 mm | - | 0 W/m² | - |
| 1777513300 | 12.22° C | 99% | 1007.5 hPa | 10.67 mm | - | 0 W/m² | - |
| 1777512996 | 12.22° C | 99% | 1008.4 hPa | 10.67 mm | - | 0 W/m² | - |
| 1777512693 | 12.22° C | 99% | 1008.5 hPa | 6.1 mm | - | 0 W/m² | - |
| 1777512389 | 12.22° C | 99% | 1008 hPa | 3.05 mm | - | 0 W/m² | - |
| 1777512086 | 12.22° C | 99% | 1007.9 hPa | 0 mm | - | 0 W/m² | - |
| 1777511785 | 12.22° C | 99% | 1008.1 hPa | 0 mm | - | 0 W/m² | - |
* Rain latest hour (hover to see other rain measurements)
** Current wind speed in m/s (hover to see current wind gust speed)